Regional Weather Roundup
Issued by NWS Goodland, KS

Home | Current Version | Previous Version | Graphics & Text | Print | Product List | Glossary On
Versions: 1 2 3 4 5 6 7 8 9 10 11 12 13 14 15 16 17 18 19 20 21 22 23 24 25 26 27 28 29 30 31 32 33 34 35 36 37 38 39 40 41 42 43 44 45 46 47 48 49 50
000
ASUS43 KGLD 170659
RWRGLD

GOODLAND FORECAST AREA HOURLY WEATHER ROUNDUP
NATIONAL WEATHER SERVICE GOODLAND KS
100 AM MDT TUE OCT 17 2017

...OFFICIAL OBSERVATIONS...

CITY           SKY/WX    TMP DP  RH WIND       PRES   REMARKS
GOODLAND KS    CLEAR     42  31  64 W6        30.16S
HILL CITY KS   PTCLDY    52  37  56 W6        30.11F
IMPERIAL NEB   CLEAR     45  29  53 NW7       30.14F
MCCOOK NEB     CLEAR     47  38  71 W6        30.11S
AKRON CO       CLOUDY    40  22  48 SW8       30.22F
BURLINGTON CO  CLOUDY    43  31  62 W13       30.20S
LIMON CO       CLOUDY    40  21  46 NW7       30.27R
$$

...UNOFFICIAL OBSERVATIONS...

CITY           SKY/WX    TMP DP  RH WIND       PRES   REMARKS
NORTON KS      CLEAR     48  34  57 W6        30.09
SHARON SPRINGS   N/A     42  33  69 CALM        N/A
TRENTON NEB      N/A     49  32  52 N8          N/A
KIT CARSON CO    N/A     44  32  63 MISG        N/A
YUMA CO        FAIR      37  28  70 W8        30.20S
$$




USA.gov is the U.S. government's official web portal to all federal, state and local government web resources and services.